{"data":{"norad_id":64184,"epoch":"2026-05-25T02:44:45.792096Z","epoch_age_seconds":75606,"freshness":"FRESH","line1":"1 64184U 25113Q   26145.11441889  .00009804  00000+0  34265-3 0  9992","line2":"2 64184  53.1600  96.3196 0001402  91.4135 268.7026 15.30205047 56766","mean_motion":15.30205047,"eccentricity":0.0001402,"inclination_deg":53.16,"raan_deg":96.3196,"arg_perigee_deg":91.4135,"mean_anomaly_deg":268.7026,"bstar":0.00034265,"rev_number":5676,"period_min":94.105035323413,"perigee_km":474.23916218107,"apogee_km":476.16083787587,"semimajor_km":6853.3370000285,"source":"CELESTRAK","updated_at":"2026-05-25T13:38:20.312331Z"}}